Altoona, PA

6:36 PM EST on December 14, 2017 (GMT -0500)
Altoona-Blair County

Weather History for KAOO - December, 2014

Change the Weather History Date:

Monday, December 8, 2014

  Actual Average Record
Temperature  
Mean Temperature 28 °F 33 °F  
Max Temperature 32 °F 40 °F 62 °F (1991)
Min Temperature 23 °F 26 °F 7 °F (2005)
Degree Days  
Heating Degree Days 37 32  
Month to date heating degree days 244 247  
Since 1 July heating degree days 1546 1566  
Cooling Degree Days 0 0  
Month to date cooling degree days 0 0  
Year to date cooling degree days 521 531  
Moisture  
Dew Point 22 °F    
Average Humidity 75    
Maximum Humidity 100    
Minimum Humidity 50    
Precipitation  
Precipitation T in 0.09 in 1.26 in (1972)
Month to date precipitation 1.14 0.73  
Year to date precipitation 35.13 33.95  
Sea Level Pressure  
Sea Level Pressure 30.44 in    
Wind  
Wind Speed 5 mph (SE)    
Max Wind Speed 16 mph    
Max Gust Speed 21 mph    
Visibility 9 miles    
Events      
T = Trace of Precipitation, MM = Missing Value Source: NWS Daily Summary

Daily Weather History Graph

Daily Weather History Graph

Search for Another Location

Airport or City:

Trip Planner

Search our weather history database for the weather conditions in past years. The results will help you decide how hot, cold, wet, or windy it might be!

Date:

Astronomy

Dec. 08, 2014 Rise Set
Actual Time 7:23 AM EST 4:46 PM EST
Civil Twilight 6:52 AM EST 5:17 PM EST
Nautical Twilight 6:18 AM EST 5:51 PM EST
Astronomical Twilight 5:45 AM EST 6:24 PM EST
Moon 7:08 PM EST (12/8) 8:52 AM EST (12/8)
Length of Visible Light 10h 24m
Length of Day
9h 23m
Waning Gibbous, 95% of the Moon is Illuminated
Dec 8
Waning Gibbous
Dec 14
Last Quarter
Dec 21
New
Dec 28
First Quarter
Jan 4
Full

Hourly Weather History & Observations

Time (EST) Temp. Windchill Dew Point Humidity Pressure Visibility Wind Dir Wind Speed Gust Speed Precip Events Conditions
12:53 AM 25.0 °F - 16.0 °F 69% 30.58 in 10.0 mi Calm Calm - N/A   Clear
1:53 AM 26.1 °F - 14.0 °F 60% 30.57 in 10.0 mi Calm Calm - N/A   Clear
2:53 AM 25.0 °F - 15.1 °F 66% 30.56 in 10.0 mi Calm Calm - N/A   Clear
3:53 AM 25.0 °F - 14.0 °F 63% 30.54 in 10.0 mi Calm Calm - N/A   Clear
4:53 AM 24.1 °F 18.2 °F 15.1 °F 69% 30.53 in 10.0 mi East 4.6 mph - N/A   Clear
5:53 AM 25.0 °F - 16.0 °F 69% 30.55 in 10.0 mi Calm Calm - N/A   Clear
6:53 AM 27.0 °F 23.0 °F 12.0 °F 53% 30.54 in 10.0 mi SSE 3.5 mph - N/A   Clear
7:53 AM 26.1 °F 20.5 °F 12.0 °F 55% 30.55 in 10.0 mi South 4.6 mph - N/A   Clear
8:53 AM 27.0 °F 18.7 °F 12.0 °F 53% 30.56 in 10.0 mi SE 8.1 mph - N/A   Clear
9:53 AM 28.0 °F 20.0 °F 12.9 °F 53% 30.57 in 10.0 mi SSE 8.1 mph - N/A   Mostly Cloudy
10:53 AM 28.9 °F 19.2 °F 18.0 °F 64% 30.56 in 10.0 mi South 11.5 mph 18.4 mph N/A   Overcast
11:53 AM 30.0 °F 20.0 °F 21.0 °F 69% 30.53 in 10.0 mi SSE 12.7 mph - N/A   Overcast
12:53 PM 30.9 °F 22.2 °F 21.9 °F 69% 30.48 in 10.0 mi SSE 10.4 mph - N/A   Overcast
1:53 PM 32.0 °F 25.6 °F 24.1 °F 73% 30.45 in 10.0 mi SE 6.9 mph - N/A   Overcast
2:53 PM 30.9 °F 23.5 °F 24.1 °F 76% 30.45 in 10.0 mi SSE 8.1 mph - N/A   Overcast
3:53 PM 30.9 °F 23.5 °F 24.1 °F 76% 30.43 in 10.0 mi SE 8.1 mph - N/A   Overcast
4:17 PM 30.9 °F 24.3 °F 25.0 °F 79% 30.36 in 10.0 mi ESE 6.9 mph - N/A   Overcast
4:46 PM 30.0 °F 24.1 °F 25.0 °F 82% 30.36 in 10.0 mi SE 5.8 mph - N/A   Overcast
4:53 PM 30.0 °F 22.4 °F 25.0 °F 82% 30.43 in 10.0 mi SE 8.1 mph - N/A   Overcast
5:53 PM 30.0 °F - 25.0 °F 82% 30.42 in 10.0 mi Calm Calm - N/A   Overcast
6:48 PM 30.2 °F 25.4 °F 24.8 °F 80% 30.34 in 10.0 mi SSE 4.6 mph - N/A   Overcast
6:53 PM 30.0 °F - 25.0 °F 82% 30.40 in 10.0 mi Calm Calm - N/A   Overcast
7:07 PM 30.0 °F - 26.1 °F 85% 30.34 in 10.0 mi Calm Calm - N/A   Overcast
7:37 PM 28.9 °F 23.9 °F 26.1 °F 89% 30.33 in 10.0 mi SSE 4.6 mph - N/A   Overcast
7:53 PM 28.9 °F 23.9 °F 26.1 °F 89% 30.38 in 7.0 mi SSE 4.6 mph - N/A   Overcast
8:53 PM 28.9 °F 25.2 °F 28.0 °F 96% 30.37 in 4.0 mi ESE 3.5 mph - N/A   Overcast
9:53 PM 28.9 °F 25.2 °F 28.0 °F 96% 30.34 in 4.0 mi Variable 3.5 mph - N/A   Overcast
10:20 PM 28.9 °F - 27.0 °F 92% 30.28 in 4.0 mi Calm Calm - N/A   Overcast
10:53 PM 28.9 °F - 28.0 °F 96% 30.33 in 2.5 mi Calm Calm - N/A   Overcast
11:32 PM 28.9 °F 23.9 °F 28.0 °F 96% 30.25 in 3.0 mi East 4.6 mph - N/A   Overcast
11:53 PM 28.9 °F 21.1 °F 28.0 °F 96% 30.29 in 4.0 mi East 8.1 mph - 0.00 in   Overcast